KT2UU-13 Weather Reports


Display with metric or nautical units.
time (UTC)temp
F
wind
direction
speed
MPH
gust
MPH
rain 1hr
in
rain 24hr
in
rain mn
in
humidity
%
barometer
mb
20260905191129 96 219 0.0 4.0 0.00 0.00 0.00 48 1013.4
20260905190627 98 219 1.0 1.0 0.00 0.00 0.00 48 1013.4
20260905190127 98 221 0.0 0.0 0.00 0.00 0.00 47 1013.6
20260905185626 98 219 1.0 1.0 0.00 0.00 0.00 47 1013.6
20260905185120 97 218 0.0 2.0 0.00 0.00 0.00 49 1013.4
20260905184615 98 223 1.0 3.0 0.00 0.00 0.00 47 1013.5
20260905184114 97 218 1.0 2.0 0.00 0.00 0.00 49 1013.7
20260905183613 96 213 1.0 3.0 0.00 0.00 0.00 52 1013.7
20260905183108 96 218 0.0 1.0 0.00 0.00 0.00 52 1013.8
20260905182608 96 209 0.0 2.0 0.00 0.00 0.00 53 1013.6
20260905182102 95 214 1.0 4.0 0.00 0.00 0.00 53 1013.8
20260905181557 95 217 0.0 4.0 0.00 0.00 0.00 56 1014.0
20260905181056 96 220 4.0 6.0 0.00 0.00 0.00 54 1014.3
20260905180551 96 217 2.0 6.0 0.00 0.00 0.00 56 1014.1
20260905180046 96 218 1.0 3.0 0.00 0.00 0.00 53 1014.2
20260905175545 95 219 1.0 1.0 0.00 0.00 0.00 58 1014.2
20260905175041 95 218 0.0 4.0 0.00 0.00 0.00 59 1014.2
20260905174537 95 220 3.0 7.0 0.00 0.00 0.00 57 1014.3
20260905174032 95 219 2.0 3.0 0.00 0.00 0.00 59 1014.5
20260905173528 94 218 2.0 2.0 0.00 0.00 0.00 61 1014.3
20260905173023 94 218 0.0 0.0 0.00 0.00 0.00 61 1014.6
20260905172521 94 217 4.0 4.0 0.00 0.00 0.00 60 1014.6
20260905172017 94 217 2.0 6.0 0.00 0.00 0.00 60 1014.6
20260905171514 93 220 3.0 4.0 0.00 0.00 0.00 62 1014.9
20260905171009 93 218 0.0 2.0 0.00 0.00 0.00 63 1014.6
20260905170506 93 218 0.0 2.0 0.00 0.00 0.00 63 1014.8
20260905170000 93 217 1.0 3.0 0.00 0.00 0.00 62 1014.7
20260905165455 93 219 3.0 7.0 0.00 0.00 0.00 61 1014.9
20260905164950 92 214 1.0 3.0 0.00 0.00 0.00 62 1014.9
20260905164450 92 218 0.0 0.0 0.00 0.00 0.00 64 1015.0
20260905163944 92 214 0.0 3.0 0.00 0.00 0.00 64 1015.2
20260905163442 91 215 0.0 4.0 0.00 0.00 0.00 65 1014.9
20260905162937 91 217 2.0 4.0 0.00 0.00 0.00 65 1015.2
20260905162432 91 210 0.0 4.0 0.00 0.00 0.00 66 1015.3
20260905161927 91 217 1.0 2.0 0.00 0.00 0.00 65 1015.3
20260905161426 91 212 0.0 1.0 0.00 0.00 0.00 67 1015.4
20260905160924 90 212 2.0 4.0 0.00 0.00 0.00 66 1015.5
20260905160418 91 210 0.0 2.0 0.00 0.00 0.00 67 1015.5
20260905155913 90 215 2.0 3.0 0.00 0.00 0.00 68 1015.4
20260905155412 89 217 0.0 1.0 0.00 0.00 0.00 70 1015.6
20260905154911 89 219 1.0 3.0 0.00 0.00 0.00 70 1015.6
20260905154407 89 220 0.0 2.0 0.00 0.00 0.00 70 1015.7
20260905153903 89 219 2.0 2.0 0.00 0.00 0.00 71 1015.8
20260905153359 88 215 1.0 2.0 0.00 0.00 0.00 70 1015.9
20260905152858 89 210 0.0 3.0 0.00 0.00 0.00 69 1016.1
20260905152357 88 217 0.0 0.0 0.00 0.00 0.00 73 1015.8
20260905151853 88 217 2.0 2.0 0.00 0.00 0.00 74 1016.1
20260905151348 88 215 0.0 1.0 0.00 0.00 0.00 73 1015.9
20260905150843 88 205 0.0 1.0 0.00 0.00 0.00 75 1016.2
20260905150337 88 221 1.0 2.0 0.00 0.00 0.00 74 1015.9
20260905145834 88 216 0.0 0.0 0.00 0.00 0.00 74 1015.8
20260905145329 87 221 0.0 0.0 0.00 0.00 0.00 74 1016.2
20260905144827 87 215 0.0 1.0 0.00 0.00 0.00 76 1016.0
20260905144323 87 212 0.0 1.0 0.00 0.00 0.00 75 1016.1
20260905143822 87 210 0.0 0.0 0.00 0.00 0.00 75 1016.1
20260905143316 86 216 0.0 0.0 0.00 0.00 0.00 78 1016.2
20260905142815 85 211 0.0 0.0 0.00 0.00 0.00 77 1016.2
20260905142310 85 215 0.0 1.0 0.00 0.00 0.00 79 1016.3
20260905141806 85 206 0.0 0.0 0.00 0.00 0.00 80 1016.4
20260905141301 85 215 0.0 0.0 0.00 0.00 0.00 79 1016.3
20260905140756 84 211 0.0 0.0 0.00 0.00 0.00 81 1016.5
20260905140250 84 213 0.0 0.0 0.00 0.00 0.00 81 1016.2
20260905135749 84 217 0.0 0.0 0.00 0.00 0.00 82 1016.2
20260905135245 83 216 0.0 0.0 0.00 0.00 0.00 82 1016.2
20260905134745 83 213 0.0 0.0 0.00 0.00 0.00 83 1016.4
20260905134239 82 215 0.0 0.0 0.00 0.00 0.00 85 1016.5
20260905133734 82 215 0.0 2.0 0.00 0.00 0.00 86 1016.4
20260905133229 82 213 0.0 0.0 0.00 0.00 0.00 85 1016.7
20260905132728 82 211 0.0 0.0 0.00 0.00 0.00 86 1016.6
20260905132224 81 211 0.0 0.0 0.00 0.00 0.00 86 1016.6
20260905131719 81 211 0.0 0.0 0.00 0.00 0.00 86 1016.7
20260905131214 81 211 0.0 0.0 0.00 0.00 0.00 85 1016.7
20260905130714 82 213 0.0 0.0 0.00 0.00 0.00 86 1016.6
20260905130208 82 213 0.0 0.0 0.00 0.00 0.00 87 1016.8
20260905125703 81 206 0.0 0.0 0.00 0.00 0.00 88 1016.7
20260905125158 81 213 0.0 0.0 0.00 0.00 0.00 88 1016.7
20260905124654 81 206 0.0 0.0 0.00 0.00 0.00 88 1016.7
20260905124150 80 213 0.0 0.0 0.00 0.00 0.00 89 1016.8
20260905123645 80 206 0.0 0.0 0.00 0.00 0.00 88 1016.6
20260905123142 79 213 0.0 0.0 0.00 0.00 0.00 92 1016.6
20260905122641 77 213 0.0 0.0 0.00 0.00 0.00 94 1016.7
20260905122137 76 213 0.0 0.0 0.00 0.00 0.00 97 1016.6
20260905121631 76 213 0.0 0.0 0.00 0.00 0.00 99 1016.6
20260905121127 74 213 0.0 0.0 0.00 0.00 0.00 99 1016.6
20260905120626 73 213 0.0 0.0 0.00 0.00 0.00 99 1016.5
20260905120121 73 213 0.0 0.0 0.00 0.00 0.00 99 1016.5
20260905115620 73 208 0.0 0.0 0.00 0.00 0.00 99 1016.6
20260905115115 73 208 0.0 0.0 0.00 0.00 0.00 99 1016.4
20260905114614 72 208 0.0 0.0 0.00 0.00 0.00 99 1016.3
20260905114113 72 208 0.0 0.0 0.00 0.00 0.00 99 1016.2
20260905113603 72 208 0.0 0.0 0.00 0.00 0.00 99 1016.1
20260905113057 72 208 0.0 0.0 0.00 0.00 0.00 99 1015.9
20260905112547 72 208 0.0 0.0 0.00 0.00 0.00 99 1016.1
20260905112042 72 208 0.0 0.0 0.00 0.00 0.00 99 1015.8
20260905111537 72 208 0.0 0.0 0.00 0.00 0.00 99 1015.7
20260905111036 72 208 0.0 0.0 0.00 0.00 0.00 99 1015.6
20260905110535 72 208 0.0 0.0 0.00 0.00 0.00 99 1015.6
20260905110030 72 208 0.0 0.0 0.00 0.00 0.00 99 1015.6
20260905105525 72 208 0.0 0.0 0.00 0.00 0.00 99 1015.4
20260905105024 72 213 0.0 0.0 0.00 0.00 0.00 99 1015.4
20260905104520 72 213 0.0 0.0 0.00 0.00 0.00 99 1015.3
20260905104020 72 208 0.0 0.0 0.00 0.00 0.00 99 1015.4
20260905103515 72 213 0.0 0.0 0.00 0.00 0.00 99 1015.4
20260905103012 73 208 0.0 0.0 0.00 0.00 0.00 99 1015.3
20260905102507 73 208 0.0 0.0 0.00 0.00 0.00 99 1015.4
20260905102003 73 213 0.0 0.0 0.00 0.00 0.00 99 1015.3
20260905101501 73 208 0.0 0.0 0.00 0.00 0.00 99 1015.5
20260905101000 73 213 0.0 0.0 0.00 0.00 0.00 99 1015.4
20260905100456 73 208 0.0 0.0 0.00 0.00 0.00 99 1015.5
20260905095955 73 208 0.0 0.0 0.00 0.00 0.00 99 1015.5
20260905095450 73 208 0.0 0.0 0.00 0.00 0.00 99 1015.4
20260905094945 73 208 0.0 0.0 0.00 0.00 0.00 99 1015.3
20260905094441 73 216 0.0 0.0 0.00 0.00 0.00 99 1015.5
20260905093939 73 208 0.0 0.0 0.00 0.00 0.00 99 1015.3
20260905093435 73 208 0.0 0.0 0.00 0.00 0.00 99 1015.2
20260905092931 73 216 0.0 0.0 0.00 0.00 0.00 99 1015.4
20260905092426 73 215 0.0 0.0 0.00 0.00 0.00 99 1015.3
20260905091920 73 216 0.0 0.0 0.00 0.00 0.00 99 1015.3
20260905091415 73 215 0.0 0.0 0.00 0.00 0.00 99 1015.3
20260905090914 73 216 0.0 0.0 0.00 0.00 0.00 99 1015.4
20260905090410 73 213 0.0 0.0 0.00 0.00 0.00 99 1015.2
20260905085909 73 215 0.0 0.0 0.00 0.00 0.00 99 1015.2
20260905085409 74 213 0.0 0.0 0.00 0.00 0.00 99 1015.3
20260905084905 74 213 0.0 0.0 0.00 0.00 0.00 99 1015.2
20260905084403 74 213 0.0 0.0 0.00 0.00 0.00 99 1015.4
20260905083859 74 215 0.0 0.0 0.00 0.00 0.00 99 1015.1
20260905083354 74 215 0.0 0.0 0.00 0.00 0.00 99 1015.3
20260905082850 74 216 0.0 0.0 0.00 0.00 0.00 99 1015.1
20260905082346 74 216 0.0 0.0 0.00 0.00 0.00 99 1015.5
20260905081841 74 215 0.0 0.0 0.00 0.00 0.00 99 1015.3
20260905081336 74 215 0.0 0.0 0.00 0.00 0.00 99 1015.4
20260905080835 74 215 0.0 0.0 0.00 0.00 0.00 99 1015.2
20260905080335 74 215 0.0 0.0 0.00 0.00 0.00 99 1015.4
20260905075833 74 215 0.0 0.0 0.00 0.00 0.00 99 1015.4
20260905075328 74 215 0.0 0.0 0.00 0.00 0.00 99 1015.4
20260905074827 74 212 0.0 0.0 0.00 0.00 0.00 99 1015.4
20260905074323 74 213 0.0 0.0 0.00 0.00 0.00 99 1015.4
20260905073819 74 213 0.0 0.0 0.00 0.00 0.00 99 1015.0
20260905073313 74 213 0.0 0.0 0.00 0.00 0.00 99 1015.3
20260905072808 74 213 0.0 0.0 0.00 0.00 0.00 99 1015.1
20260905072306 74 208 0.0 0.0 0.00 0.00 0.00 99 1015.1
20260905071800 74 208 0.0 0.0 0.00 0.00 0.00 98 1015.2
20260905071256 74 208 0.0 0.0 0.00 0.00 0.00 98 1015.2
20260905070750 75 208 0.0 0.0 0.00 0.00 0.00 98 1015.3
20260905070247 75 208 0.0 0.0 0.00 0.00 0.00 98 1015.1
20260905065745 75 208 0.0 0.0 0.00 0.00 0.00 98 1015.2
20260905065239 75 215 0.0 0.0 0.00 0.00 0.00 98 1015.3
20260905064734 75 215 0.0 0.0 0.00 0.00 0.00 98 1015.2
20260905064230 75 215 0.0 0.0 0.00 0.00 0.00 97 1015.0
20260905063728 75 215 0.0 0.0 0.00 0.00 0.00 97 1015.3
20260905063224 75 213 0.0 0.0 0.00 0.00 0.00 97 1015.0
20260905062720 75 213 0.0 0.0 0.00 0.00 0.00 96 1015.1
20260905062219 75 213 0.0 0.0 0.00 0.00 0.00 96 1015.0
20260905061714 75 215 0.0 0.0 0.00 0.00 0.00 96 1014.8
20260905061209 76 215 0.0 0.0 0.00 0.00 0.00 96 1015.0
20260905060704 76 215 0.0 0.0 0.00 0.00 0.00 96 1015.2
20260905060201 76 212 0.0 0.0 0.00 0.00 0.00 96 1015.1
20260905055659 76 208 0.0 0.0 0.00 0.00 0.00 96 1015.3
20260905055154 76 216 0.0 0.0 0.00 0.00 0.00 96 1015.2
20260905054649 76 216 0.0 0.0 0.00 0.00 0.00 96 1015.2
20260905054145 76 216 0.0 0.0 0.00 0.00 0.00 95 1015.2
20260905053645 76 207 0.0 0.0 0.00 0.00 0.00 96 1015.1
20260905053140 76 207 0.0 0.0 0.00 0.00 0.00 95 1015.4
20260905052639 76 207 0.0 0.0 0.00 0.00 0.00 95 1015.4
20260905052135 76 207 0.0 0.0 0.00 0.00 0.00 95 1015.4
20260905051629 76 216 0.0 0.0 0.00 0.00 0.00 95 1015.5
20260905051126 76 215 0.0 0.0 0.00 0.00 0.00 94 1015.4
20260905050622 76 215 0.0 0.0 0.00 0.00 0.00 94 1015.6
20260905050119 76 215 0.0 0.0 0.00 0.00 0.00 94 1015.6
20260905045618 76 213 0.0 0.0 0.00 0.00 0.00 95 1015.6
20260905045114 76 213 0.0 0.0 0.00 0.00 0.00 95 1015.7
20260905044614 76 207 0.0 0.0 0.00 0.00 0.00 95 1015.9
20260905044109 76 207 0.0 0.0 0.00 0.00 0.00 95 1015.6
20260905043607 77 215 0.0 0.0 0.00 0.00 0.00 95 1015.4
20260905043103 76 215 0.0 0.0 0.00 0.00 0.00 95 1015.7
20260905042601 77 215 0.0 0.0 0.00 0.00 0.00 95 1015.6
20260905042057 77 215 0.0 0.0 0.00 0.00 0.00 95 1015.8
20260905041552 77 215 0.0 0.0 0.00 0.00 0.00 95 1015.8
20260905041048 77 215 0.0 0.0 0.00 0.00 0.00 94 1015.6
20260905040547 77 215 0.0 0.0 0.00 0.00 0.00 94 1015.5
20260905040046 77 207 0.0 0.0 0.00 0.00 0.00 94 1015.6
20260905035541 77 215 0.0 0.0 0.00 0.00 0.00 94 1015.9
20260905035038 77 213 0.0 0.0 0.00 0.00 0.00 94 1015.9
20260905034533 77 215 0.0 0.0 0.00 0.00 0.00 94 1016.1
20260905034033 78 213 0.0 0.0 0.00 0.00 0.00 94 1015.9
20260905033527 78 213 0.0 0.0 0.00 0.00 0.00 93 1015.9
20260905033023 78 213 0.0 0.0 0.00 0.00 0.00 93 1015.9
20260905032517 78 207 0.0 0.0 0.00 0.00 0.00 93 1016.0
20260905032013 78 213 0.0 0.0 0.00 0.00 0.00 93 1016.0
20260905031509 78 213 0.0 0.0 0.00 0.00 0.00 92 1015.9
20260905031003 79 213 0.0 0.0 0.00 0.00 0.00 92 1016.2
20260905030459 79 207 0.0 0.0 0.00 0.00 0.00 92 1015.9
20260905025957 79 207 0.0 0.0 0.00 0.00 0.00 92 1016.0
20260905025453 79 207 0.0 0.0 0.00 0.00 0.00 92 1016.1
20260905024949 79 213 0.0 0.0 0.00 0.00 0.00 90 1016.0
20260905024449 79 215 0.0 0.0 0.00 0.00 0.00 90 1016.2
20260905023940 79 213 0.0 0.0 0.00 0.00 0.00 90 1016.0
20260905023434 80 213 0.0 0.0 0.00 0.00 0.00 89 1016.2
20260905022933 80 207 0.0 0.0 0.00 0.00 0.00 88 1016.1
20260905022428 80 215 0.0 0.0 0.00 0.00 0.00 87 1016.3
20260905021923 80 215 0.0 0.0 0.00 0.00 0.00 88 1016.2
20260905021418 80 215 0.0 0.0 0.00 0.00 0.00 85 1016.2
20260905020914 79 215 0.0 0.0 0.00 0.00 0.00 86 1016.2
20260905020412 80 215 0.0 0.0 0.00 0.00 0.00 87 1016.3
20260905015912 80 211 0.0 0.0 0.00 0.00 0.00 87 1016.2
20260905015410 80 215 0.0 0.0 0.00 0.00 0.00 88 1016.1
20260905014910 80 215 0.0 0.0 0.00 0.00 0.00 88 1016.1
20260905014405 80 215 0.0 0.0 0.00 0.00 0.00 88 1016.2
20260905013900 81 213 0.0 0.0 0.00 0.00 0.00 87 1016.1
20260905013357 81 213 0.0 0.0 0.00 0.00 0.00 86 1016.0
20260905012852 81 213 0.0 0.0 0.00 0.00 0.00 85 1016.1
20260905012348 81 207 0.0 0.0 0.00 0.00 0.00 84 1016.0
20260905011844 81 213 0.0 0.0 0.00 0.00 0.00 84 1016.0
20260905011339 81 207 0.0 0.0 0.00 0.00 0.00 84 1016.1
20260905010835 82 213 0.0 0.0 0.00 0.00 0.00 84 1016.0
20260905010330 82 215 0.0 0.0 0.00 0.00 0.00 84 1016.0
20260905005826 82 213 0.0 0.0 0.00 0.00 0.00 83 1015.9
20260905005321 82 213 0.0 0.0 0.00 0.00 0.00 84 1016.0
20260905004816 82 213 0.0 0.0 0.00 0.00 0.00 84 1015.9
20260905004311 82 213 0.0 0.0 0.00 0.00 0.00 84 1015.9
20260905003807 83 206 0.0 0.0 0.00 0.00 0.00 83 1015.8
20260905003303 83 206 0.0 0.0 0.00 0.00 0.00 84 1015.8
20260905002758 83 206 0.0 0.0 0.00 0.00 0.00 84 1015.8
20260905002257 84 213 0.0 0.0 0.00 0.00 0.00 84 1015.6
20260905001752 84 213 0.0 0.0 0.00 0.00 0.00 82 1015.5
20260905001252 85 213 0.0 0.0 0.00 0.00 0.00 82 1015.6
20260905000747 85 206 0.0 0.0 0.00 0.00 0.00 81 1015.8
20260905000243 86 215 0.0 0.0 0.00 0.00 0.00 79 1015.7
20260904235738 87 215 0.0 0.0 0.00 0.00 0.00 79 1015.8
20260904235232 87 211 0.0 0.0 0.00 0.00 0.00 79 1015.9
20260904234727 88 211 0.0 0.0 0.00 0.00 0.00 77 1015.9
20260904234223 89 211 0.0 0.0 0.00 0.00 0.00 75 1015.9
20260904233718 90 212 0.0 0.0 0.00 0.00 0.00 72 1015.6
20260904233215 91 212 0.0 0.0 0.00 0.00 0.00 71 1015.7
20260904232711 91 214 0.0 0.0 0.00 0.00 0.00 71 1015.7
20260904232207 91 214 0.0 0.0 0.00 0.00 0.00 71 1015.5
20260904231702 92 214 0.0 0.0 0.00 0.00 0.00 67 1015.3
20260904231157 92 214 0.0 0.0 0.00 0.00 0.00 65 1015.5
20260904230657 92 214 0.0 0.0 0.00 0.00 0.00 65 1015.5
20260904230152 92 215 0.0 0.0 0.00 0.00 0.00 62 1015.4
20260904225650 93 214 0.0 0.0 0.00 0.00 0.00 61 1015.3
20260904225145 93 212 0.0 0.0 0.00 0.00 0.00 58 1015.3
20260904224639 94 214 0.0 0.0 0.00 0.00 0.00 56 1015.3
20260904224133 94 213 0.0 1.0 0.00 0.00 0.00 54 1015.4
20260904223633 95 213 0.0 2.0 0.00 0.00 0.00 56 1015.2
20260904223128 95 219 0.0 2.0 0.00 0.00 0.00 54 1015.3
20260904222624 95 219 0.0 0.0 0.00 0.00 0.00 54 1015.5
20260904222114 95 219 0.0 0.0 0.00 0.00 0.00 57 1015.3
20260904221614 95 219 0.0 0.0 0.00 0.00 0.00 55 1015.2
20260904221113 94 219 0.0 3.0 0.00 0.00 0.00 56 1015.2
20260904220609 95 215 3.0 4.0 0.00 0.00 0.00 55 1015.1
20260904220104 95 219 0.0 2.0 0.00 0.00 0.00 55 1015.3
20260904215604 95 219 2.0 2.0 0.00 0.00 0.00 52 1015.1
20260904215100 94 215 1.0 4.0 0.00 0.00 0.00 52 1015.2
20260904214555 95 219 0.0 3.0 0.00 0.00 0.00 52 1015.1
20260904214051 95 219 2.0 3.0 0.00 0.00 0.00 52 1015.0
20260904213548 95 210 1.0 3.0 0.00 0.00 0.00 51 1015.1
20260904213045 96 219 0.0 2.0 0.00 0.00 0.00 54 1015.2
20260904212545 96 219 0.0 2.0 0.00 0.00 0.00 54 1015.3
20260904212040 95 219 1.0 3.0 0.00 0.00 0.00 54 1015.4
20260904211539 95 213 2.0 2.0 0.00 0.00 0.00 56 1015.5
20260904211035 94 214 0.0 0.0 0.00 0.00 0.00 57 1015.3
20260904210534 93 212 0.0 2.0 0.00 0.00 0.00 58 1015.5
20260904210030 93 211 1.0 2.0 0.00 0.00 0.00 58 1015.5
20260904205526 94 213 0.0 2.0 0.00 0.00 0.00 58 1015.5
20260904205022 96 222 1.0 4.0 0.00 0.00 0.00 56 1015.7
20260904204518 95 219 1.0 2.0 0.00 0.00 0.00 56 1015.6
20260904204014 96 219 0.0 0.0 0.00 0.00 0.00 55 1015.7
20260904203509 97 219 2.0 3.0 0.00 0.00 0.00 53 1015.8
20260904203006 98 216 2.0 3.0 0.00 0.00 0.00 51 1015.6
20260904202501 96 221 0.0 0.0 0.00 0.00 0.00 53 1015.7
20260904201957 94 219 0.0 4.0 0.00 0.00 0.00 56 1015.7
20260904201452 97 213 2.0 3.0 0.00 0.00 0.00 54 1015.8
20260904200948 97 221 1.0 4.0 0.00 0.00 0.00 53 1015.7
20260904200446 96 219 1.0 3.0 0.00 0.00 0.00 54 1016.0
20260904195941 96 219 0.0 2.0 0.00 0.00 0.00 53 1015.9
20260904195439 95 219 0.0 1.0 0.00 0.00 0.00 55 1016.1
20260904194939 95 213 0.0 0.0 0.00 0.00 0.00 55 1016.3
20260904194434 95 213 1.0 2.0 0.00 0.00 0.00 55 1016.2
20260904193929 96 219 0.0 0.0 0.00 0.00 0.00 54 1016.4
20260904193424 96 219 4.0 6.0 0.00 0.00 0.00 53 1016.6
20260904192919 96 213 1.0 3.0 0.00 0.00 0.00 53 1016.5
20260904192414 95 218 0.0 0.0 0.00 0.00 0.00 55 1016.6
20260904191910 95 214 0.0 0.0 0.00 0.00 0.00 55 1016.6
20260904191406 96 217 0.0 6.0 0.00 0.00 0.00 53 1016.7